JA3VQW-13 Hirakata JP current weather conditions

sailwx.info

Wind from 285 at 1 knots gusting 4

Air temperature 8.9° C
Dewpoint -2.4° C

Last reported at 2016-Dec-07 17:42 UTC.
Time now 2016-Dec-07 18:23 UTC

Location: N 34°48' E 135°40'.
View on Google Maps.

See reports from other nearby stations

  
Tides and Currents Weather Stations Pressure Air Temp Water Temp Dewpoint Dewpoint Depression Visibility Wind Speed Wind Dir Waves Ship Positions
date/time (UTC)wind fromknots sea level pressurealtimeterstation pressurevisibilityair tempwater tempwave heightnotes
2016-Dec-07 17:42 285 1 gusting 4 8.9
2016-Dec-07 17:12 189 0 gusting 1 9.4
2016-Dec-07 16:42 211 1 gusting 2 9.4
2016-Dec-07 16:12 270 8.9
2016-Dec-07 15:42 202 7.8
2016-Dec-07 15:12 202 8.3
2016-Dec-07 15:03 202 8.3
2016-Dec-07 14:42 202 8.3
2016-Dec-07 14:12 180 8.3
2016-Dec-07 13:42 180 8.3
2016-Dec-07 13:12 180 8.3
2016-Dec-07 12:42 180 8.3
2016-Dec-07 12:12 180 8.3
2016-Dec-07 11:42 169 8.9
2016-Dec-07 11:12 225 9.4
2016-Dec-07 10:42 270 10.0
2016-Dec-07 10:12 276 1 gusting 4 10.6
2016-Dec-07 09:42 292 10.6
2016-Dec-07 09:12 252 10.6
2016-Dec-07 08:42 229 11.1
2016-Dec-07 08:12 169 0 gusting 1 11.1
2016-Dec-07 07:42 255 12.2
2016-Dec-07 07:12 174 13.9
2016-Dec-07 06:42 269 15.0
2016-Dec-07 06:12 281 4 gusting 5 15.0
2016-Dec-07 05:42 216 1 gusting 2 14.4
2016-Dec-07 05:12 250 4 gusting 6 15.6
2016-Dec-07 04:42 236 1 gusting 4 15.6
2016-Dec-07 04:12 264 1 gusting 2 15.0
2016-Dec-07 03:42 275 2 gusting 6 14.4
2016-Dec-07 03:12 292 2 gusting 5 13.9
2016-Dec-07 02:42 143 1 gusting 4 13.9
2016-Dec-07 02:12 224 13.3
2016-Dec-07 01:42 188 13.3
2016-Dec-07 01:12 135 1 gusting 1 12.8
2016-Dec-07 00:42 135 12.2
2016-Dec-07 00:12 135 10.6
2016-Dec-06 23:42 135 6.1
2016-Dec-06 23:12 135 6.7
2016-Dec-06 22:42 135 4.4
2016-Dec-06 22:12 135 3.9
2016-Dec-06 21:42 135 3.9
2016-Dec-06 21:12 135 3.9
2016-Dec-06 20:42 135 3.9
2016-Dec-06 20:12 135 4.4
2016-Dec-06 19:42 135 4.4
2016-Dec-06 19:12 135 4.4
2016-Dec-06 18:42 135 4.4
2016-Dec-06 18:12 135 4.4
2016-Dec-06 17:42 135 4.4
2016-Dec-06 17:12 135 5.0
2016-Dec-06 16:42 135 5.6
2016-Dec-06 16:12 135 5.6
2016-Dec-06 15:42 135 5.6
2016-Dec-06 15:12 135 5.6
2016-Dec-06 14:42 135 6.1
2016-Dec-06 14:12 135 6.1
2016-Dec-06 13:42 135 6.7
2016-Dec-06 13:33 292 7.2
2016-Dec-06 13:12 292 1 gusting 4 7.2
2016-Dec-06 12:42 292 7.8
2016-Dec-06 12:12 292 7.8
2016-Dec-06 12:03 292 7.8
2016-Dec-06 11:42 292 7.8
2016-Dec-06 11:12 292 7.8
2016-Dec-06 10:42 315 8.3
2016-Dec-06 10:12 305 1 gusting 2 8.3
2016-Dec-06 09:42 270 8.9
2016-Dec-06 09:12 315 8.9
2016-Dec-06 08:42 292 9.4
2016-Dec-06 08:12 270 10.0
2016-Dec-06 07:42 306 0 gusting 2 11.1
2016-Dec-06 07:12 294 1 gusting 2 13.3
2016-Dec-06 06:42 305 2 gusting 6 14.4
2016-Dec-06 06:12 282 16.7
2016-Dec-06 05:42 292 15.6
2016-Dec-06 05:12 260 4 gusting 2 15.6
2016-Dec-06 04:42 270 17.2
2016-Dec-06 04:12 282 1 gusting 2 15.0
2016-Dec-06 03:42 274 1 gusting 2 15.0
2016-Dec-06 03:12 272 2 gusting 4 14.4
2016-Dec-06 02:42 285 1 gusting 5 15.6
2016-Dec-06 02:12 292 14.4
2016-Dec-06 01:42 288 2 gusting 6 12.2
2016-Dec-06 01:12 242 12.8
2016-Dec-06 00:42 293 1 gusting 1 12.8
2016-Dec-06 00:12 297 1 gusting 2 12.8
2016-Dec-05 23:56 289 13.3
2016-Dec-05 23:26 288 13.3
2016-Dec-05 22:56 282 1 gusting 4 13.3
2016-Dec-05 22:26 288 2 gusting 2 12.8
2016-Dec-05 21:56 300 2 gusting 6 12.8
2016-Dec-05 21:33 303 2 gusting 6 12.8
2016-Dec-05 21:26 307 0 gusting 1 12.8
2016-Dec-05 20:56 292 4 gusting 4 12.8
2016-Dec-05 20:26 280 0 gusting 2 12.8
2016-Dec-05 19:56 179 12.8
2016-Dec-05 19:26 301 13.3
2016-Dec-05 18:56 184 12.8
2016-Dec-05 18:33 180 12.8
2016-Dec-05 18:26 218 12.8